スワン彗星

C/2021 D1 ( SWAN )

English version
Home page
Updated on July 3, 2021

---------------------------------------------------------------------

・ プロフィール

発見日 2021年2月19日
発見光度 12等
発見者 Michael Mattiazzo (Solar Wind Anisotropies (SWAN) camera on the Solar and Heliospheric Observatory (SOHO) spacecraft)

・ 写真集

・ 軌道要素

Epoch 2021 July 5.0 TT = JDT 2459400.5
T 2021 Feb. 27.61086 TT                                 Rudenko
q   0.9018079            (2000.0)            P               Q
z  +0.0103441      Peri.   72.22481     +0.81187525     -0.43241704
 +/-0.0000052      Node   311.27135     +0.08337580     +0.75087273
e   0.9906716      Incl.   31.46076     +0.57784691     +0.49920502
From 351 observations 2021 Feb. 28-May 11, mean residual 0".8.

・ 星図

・ 光度変化

        m1 = 10.5 + 5 logΔ + 15.0 log r

---------------------------------------------------------------------

軌道要素はM.P.E.C. 2021-N06に掲載されたものです。
星図はステラナビゲータ Ver.10 (アストロアーツ) で作成したものです。
光度グラフはComet for Windowsで作成したものです。

---------------------------------------------------------------------

Copyright(C) Seiichi Yoshida (comet@aerith.net). All rights reserved.